| time (UTC) | temp C | wind direction | speed KPH | gust KPH | rain 1hr cm | rain 24hr cm | rain mn cm | humidity % | barometer mb |
| 20260504081524 | 19 | 360 | 4.8 | 8.0 | 0.00 | 0.00 | 0.00 | 73 | 1016.1 |
| 20260504050000 | 21 | 360 | 1.6 | 4.8 | 0.00 | 0.00 | 0.00 | 67 | 1017.1 |
| 20260504044606 | 21 | 83 | 1.6 | 9.7 | 0.00 | 0.00 | 0.00 | 67 | 1017.3 |
| 20260504043059 | 21 | 360 | 4.8 | 12.9 | 0.00 | 0.00 | 0.00 | 67 | 1017.0 |
| 20260504041555 | 21 | 102 | 3.2 | 14.5 | 0.00 | 0.00 | 0.00 | 67 | 1017.5 |
| 20260504040056 | 21 | 360 | 3.2 | 14.5 | 0.00 | 0.00 | 0.00 | 67 | 1017.6 |
| 20260504034559 | 21 | 360 | 3.2 | 6.4 | 0.00 | 0.00 | 0.00 | 66 | 1017.8 |
| 20260504033101 | 21 | 360 | 1.6 | 8.0 | 0.00 | 0.00 | 0.00 | 64 | 1017.7 |
| 20260504031552 | 21 | 360 | 1.6 | 8.0 | 0.00 | 0.00 | 0.00 | 63 | 1017.6 |
| 20260504030051 | 21 | 360 | 1.6 | 8.0 | 0.00 | 0.00 | 0.00 | 62 | 1017.6 |
| 20260504024551 | 21 | 31 | 3.2 | 6.4 | 0.00 | 0.00 | 0.00 | 61 | 1017.4 |
| 20260504023050 | 22 | 360 | 6.4 | 14.5 | 0.00 | 0.00 | 0.00 | 60 | 1017.2 |
| 20260504021549 | 22 | 360 | 3.2 | 9.7 | 0.00 | 0.00 | 0.00 | 61 | 1017.1 |
| 20260504020049 | 21 | 360 | 4.8 | 9.7 | 0.00 | 0.00 | 0.00 | 62 | 1016.9 |
| 20260504014550 | 21 | 360 | 0.0 | 0.0 | 0.00 | 0.00 | 0.00 | 63 | 1016.9 |
| 20260504013051 | 21 | 360 | 1.6 | 6.4 | 0.00 | 0.00 | 0.00 | 63 | 1016.4 |
| 20260504011550 | 22 | 360 | 3.2 | 8.0 | 0.00 | 0.00 | 0.00 | 62 | 1016.3 |
| 20260504010054 | 22 | 360 | 4.8 | 8.0 | 0.00 | 0.00 | 0.00 | 62 | 1016.1 |
| 20260504004547 | 22 | 360 | 4.8 | 12.9 | 0.00 | 0.00 | 0.00 | 61 | 1016.0 |
| 20260504003046 | 22 | 360 | 4.8 | 9.7 | 0.00 | 0.00 | 0.00 | 61 | 1015.9 |
| 20260504001605 | 22 | 360 | 3.2 | 8.0 | 0.00 | 0.00 | 0.00 | 60 | 1015.6 |
| 20260504000045 | 22 | 360 | 6.4 | 14.5 | 0.00 | 0.00 | 0.00 | 60 | 1015.5 |
| 20260503234544 | 23 | 360 | 6.4 | 16.1 | 0.00 | 0.00 | 0.00 | 61 | 1015.5 |
| 20260503233044 | 23 | 360 | 8.0 | 17.7 | 0.00 | 0.00 | 0.00 | 60 | 1015.5 |
| 20260503231543 | 23 | 360 | 8.0 | 19.3 | 0.00 | 0.00 | 0.00 | 60 | 1015.5 |
| 20260503230042 | 23 | 360 | 9.7 | 22.5 | 0.00 | 0.00 | 0.00 | 60 | 1015.4 |
| 20260503224542 | 23 | 360 | 12.9 | 22.5 | 0.00 | 0.03 | 0.00 | 59 | 1015.4 |
| 20260503223043 | 23 | 360 | 9.7 | 19.3 | 0.00 | 0.03 | 0.00 | 58 | 1015.4 |
| 20260503221543 | 23 | 258 | 8.0 | 19.3 | 0.00 | 0.03 | 0.00 | 58 | 1015.5 |
| 20260503220058 | 24 | 360 | 6.4 | 24.1 | 0.00 | 0.03 | 0.00 | 58 | 1015.4 |
| 20260503214540 | 24 | 360 | 6.4 | 17.7 | 0.00 | 0.10 | 0.00 | 58 | 1015.4 |
| 20260503213041 | 25 | 360 | 9.7 | 17.7 | 0.00 | 0.10 | 0.00 | 56 | 1015.5 |
| 20260503211557 | 25 | 360 | 3.2 | 20.9 | 0.00 | 0.10 | 0.00 | 55 | 1015.6 |
| 20260503210038 | 25 | 360 | 4.8 | 17.7 | 0.00 | 0.10 | 0.00 | 54 | 1015.5 |
| 20260503204538 | 26 | 360 | 6.4 | 16.1 | 0.00 | 0.18 | 0.00 | 51 | 1015.6 |
| 20260503203037 | 26 | 32 | 4.8 | 16.1 | 0.00 | 0.18 | 0.00 | 49 | 1015.7 |
| 20260503201536 | 27 | 360 | 3.2 | 12.9 | 0.00 | 0.18 | 0.00 | 44 | 1015.8 |
| 20260503200037 | 27 | 162 | 1.6 | 14.5 | 0.00 | 0.18 | 0.00 | 44 | 1016.2 |
| 20260503194533 | 27 | 360 | 3.2 | 16.1 | 0.00 | 0.89 | 0.00 | 45 | 1016.4 |
| 20260503193036 | 27 | 360 | 4.8 | 16.1 | 0.00 | 0.89 | 0.00 | 47 | 1016.6 |
| 20260503191529 | 26 | 81 | 4.8 | 12.9 | 0.00 | 0.89 | 0.00 | 48 | 1016.8 |
| 20260503190029 | 25 | 71 | 3.2 | 16.1 | 0.00 | 0.89 | 0.00 | 51 | 1017.2 |
| 20260503184528 | 25 | 360 | 6.4 | 14.5 | 0.00 | 1.88 | 0.00 | 51 | 1017.4 |
| 20260503183036 | 25 | 360 | 4.8 | 12.9 | 0.00 | 1.88 | 0.00 | 52 | 1017.5 |
| 20260503181547 | 25 | 78 | 6.4 | 14.5 | 0.00 | 1.88 | 0.00 | 50 | 1017.6 |
| 20260503180027 | 26 | 176 | 4.8 | 12.9 | 0.00 | 1.88 | 0.00 | 51 | 1017.9 |
| 20260503174525 | 25 | 360 | 4.8 | 14.5 | 0.00 | 1.88 | 0.00 | 52 | 1017.8 |
| 20260503173041 | 24 | 141 | 3.2 | 16.1 | 0.00 | 1.88 | 0.00 | 53 | 1018.0 |
| 20260503171522 | 23 | 360 | 6.4 | 14.5 | 0.00 | 1.88 | 0.00 | 54 | 1018.2 |